SCP
0 0 0 0 0 0 0 0 0 0 0 0 0 0 0 0 0 0 0 0 0 0 0 0 0 0 0 0 0 0 0 0 0 0 0 0 0 0 0 0 0 0 0
0 0 0 0 0 0 0 0 0 0 0 0 0 0 0 0 0 0 0 0 0 0 0 0 0 0 0 0 0 0 0 0 0 0 0 0 0 0 0 0 0 0 0
0 0 0 0 0 0 0 0 0 0 0 0 0 0 0 0 0 0 0 0 0 0 0 0 0 0 0 0 0 0 0 0 0 0 0 0 0 0 0 0 0 0 0
0 0 0 0 0 0 0 0 0 0 0 0 0 0 0 0 0 0 0 0 0 0 0 0 0 0 0 0 0 0 0 0 0 0 0 0 0 0 0 0 0 0 0
0 0 0 0 0 0 0 0 0 0 0 0 0 0 0 0 0 0 0 0 0 0 0 0 0 0 0 0 0 0 0 0 0 0 0 0 0 0 0 0 0 0 0
0 0 0 0 0 0 0 0 0 0 0 0 0 0 0 0 0 0 0 0 0 0 0 0 0 0 0 0 0 0 0 0 0 0 0 0 0 0 0 0 0 0 0
0 0 0 0 0 0 0 0 0 0 0 0 0 0 0 0 0 0 0 0 0 0 0 0 0 0 0 0 0 0 0 0 0 0 0 0 0 0 0 0 0 0 0
0 0 0 0 0 0 0 0 0 0 0 0 0 0 0 0 0 0 0 0 0 0 0 0 0 0 0 0 0 0 0 0 0 0 0 0 0 0 0 0 0 0 0
0 0 0 0 0 0 0 0 0 0 0 0 0 0 0 0 0 0 0 0 0 0 0 0 0 0 0 0 0 0 0 0 0 0 0 0 0 0 0 0 0 0 0
0 0 0 0 0 0 0 0 0 0 0 0 0 0 0 0 0 0 0 0 0 0 0 0 0 0 0 0 0 0 0 0 0 0 0 0 0 0 0 0 0 0 0
0 0 0 0 0 0 0 0 0 0 0 0 0 0 0 0 0 0 0 0 0 0 0 0 0 0 0 0 0 0 0 0 0 0 0 0 0 0 0 0 0 0 0
0 0 0 0 0 0 0 0 0 0 0 0 0 0 0 0 0 0 0 0 0 -0 0 0 0 0 -0 0 0 0 0 0 0 0 0 0 0 0 0 0 0 0 0
0 0 0 0 0 0 0 0 0 0 0 0 0 0 0 0 0 0 0 0 0 -0 -0 -0 -0 -0 -0 -0 -0 0 0 0 0 0 0 0 -0 -0 -0 -0 -0 -0 -0
0 0 0 0 0 0 0 0 0 0 0 0 0 0 0 0 0 0 0 0 0 0 0 0 0 0 0 0 0 0 -0 -0 -0 0 0 0 0 -0 -0 -0 -0 -0 -0
0 0 0 0 0 0 0 0 0 0 0 0 0 0 0 0 0 0 0 0 0 0 0 0 0 0 0 0 0 0 -0 -0 -0 -0 -0 -0 -0 -0 -0 -0 -0 -0 -0
0 0 0 0 0 0 0 0 0 0 0 0 0 0 0 0 0 0 0 0 0 0 0 0 0 0 0 0 0 0 -0 -0 -0 -0 -0 -0 -0 -0 -0 0 0 0 0
0 0 0 0 0 0 0 0 0 0 0 0 0 0 0 0 0 0 0 0 0 0 0 0 0 0 0 0 0 -0 -0 -0 -0 -0 -0 -0 -0 -0 0 0 0 0 0
0 0 0 0 0 0 0 0 0 0 0 0 0 0 0 0 0 0 0 0 0 0 0 0 0 0 0 0 -0 -0 -0 -0 -0 -0 -0 -0 -0 0 0 0 0 0 0
0 0 0 0 0 0 0 0 0 0 0 0 0 0 0 0 0 0 0 0 0 0 0 0 0 0 0 -0 -0 -0 -0 -0 -0 -0 -0 -0 -0 -0 -0 0 0 0 0
0 0 0 0 0 0 0 0 0 0 0 0 0 0 0 0 0 0 0 0 0 0 0 0 0 0 0 -0 -0 -0 -0 -0 -0 -0 -0 -0 -0 -0 -0 -0 -0 0 0
0 0 0 0 0 0 0 0 0 0 0 0 0 0 0 0 0 0 0 0 0 0 0 0 0 0 0 0 0 0 0 0 0 0 0 0 0 0 0 0 0 0 0
0 0 0 0 0 0 0 0 0 0 0 0 0 0 0 0 0 0 0 0 0 0 0 0 0 0 0 0 0 0 0 0 0 -0 0 0 0 0 0 0 0 0 0
0 0 0 0 0 0 0 0 0 0 0 0 0 0 0 0 0 0 0 0 0 0 0 0 0 0 0 0 0 0 0 0 0 0 0 0 0 0 0 0 0 0 0
0 0 0 0 0 0 0 0 0 0 0 0 0 0 0 0 0 0 0 0 0 0 0 0 0 0 0 0 0 0 0 0 0 0 0 0 0 0 0 0 0 0 0
0 0 0 0 0 0 0 0 0 0 0 0 0 0 0 0 0 0 0 0 0 0 0 0 0 0 0 0 0 0 0 0 0 0 0 0 0 0 0 0 0 0 0
0 0 0 0 0 0 0 0 0 0 0 0 0 0 0 0 0 0 0 0 0 0 0 0 0 0 0 0 0 0 0 0 0 0 0 0 0 0 0 0 0 0 0
Wind_Speed_500mb
43 37 32 27 24 25 25 25 25 25 24 24 26 28 28 27 27 26 27 28 28 28 27 26 28 28 27 27 28 28 28 31 33 34 40 47 49 43 41 39 37 38 37
47 40 36 32 30 30 29 27 27 27 27 29 29 28 28 28 28 28 27 27 27 28 28 28 28 29 29 27 25 21 21 22 26 33 33 37 44 49 51 47 44 41 42
50 46 41 37 34 32 30 30 29 28 29 30 29 29 29 29 28 27 28 23 21 22 23 23 25 24 20 18 15 15 16 21 28 33 37 36 37 44 52 53 51 48 45
56 51 48 45 41 37 35 34 33 32 32 32 30 30 29 30 29 24 21 20 17 12 11 9 9 7 8 7 13 19 19 19 20 26 29 34 32 39 45 50 56 55 53
61 58 54 49 45 43 39 36 33 32 34 34 33 31 31 31 25 22 16 6 2 7 11 12 13 12 13 16 20 21 19 26 26 32 32 34 34 36 39 42 44 54 59
66 63 59 55 51 47 42 39 37 36 36 36 35 31 30 29 22 16 13 6 17 10 13 13 15 17 16 17 22 31 34 36 38 40 37 39 38 40 42 41 40 43 50
71 68 64 61 57 51 46 43 40 38 37 36 34 30 27 16 13 18 11 14 9 12 8 13 17 18 24 35 38 40 40 42 41 40 43 44 40 40 43 44 45 44 45
77 74 71 67 62 56 52 48 43 39 37 33 29 30 10 19 16 22 27 22 5 19 21 23 28 33 37 38 36 36 37 38 38 39 40 42 44 47 48 51 50 47 50
81 77 73 69 64 60 57 52 47 42 36 31 27 19 10 7 11 28 9 27 15 25 27 18 21 23 31 31 30 30 32 33 35 37 39 40 44 46 50 53 54 54 54
84 80 76 72 69 66 64 57 51 45 39 33 29 26 25 27 12 14 17 23 33 36 26 26 30 28 29 30 27 27 26 30 38 42 44 49 52 54 55 57 57 56 59
86 83 80 76 73 70 64 60 55 48 40 34 31 30 29 29 31 27 35 29 46 38 34 39 34 39 36 39 33 35 43 58 59 62 62 62 63 64 66 69 70 69 65
90 89 85 82 77 73 69 64 57 51 44 39 37 35 33 31 30 30 37 52 55 50 43 41 47 45 44 43 39 50 64 66 70 73 74 76 80 80 78 76 76 79 82
94 93 90 87 82 78 73 69 63 56 49 43 41 41 40 38 35 34 36 40 48 60 58 54 44 43 57 43 56 74 73 75 76 76 78 79 82 86 92 92 83 80 77
85 89 88 83 82 79 77 73 68 62 56 51 47 45 45 42 40 38 37 38 38 38 49 51 51 57 53 61 74 76 82 80 81 82 83 84 87 90 93 95 98 96 90
84 85 83 81 82 80 80 77 73 69 63 56 52 51 48 44 41 41 39 39 38 26 42 46 44 53 65 72 76 83 87 87 86 85 86 87 90 92 95 101 102 103 103
88 86 84 81 83 82 83 82 77 72 68 63 59 55 50 46 44 43 41 40 40 43 44 50 60 67 72 77 77 83 87 87 88 87 86 88 91 94 98 101 102 104 105
91 89 88 86 84 85 87 87 82 77 74 70 64 57 52 49 47 46 44 44 42 46 63 74 71 74 77 81 83 88 89 88 89 85 87 92 93 92 92 97 99 97 94
99 91 90 89 87 88 90 91 87 84 81 76 67 60 55 52 49 48 46 45 46 46 58 74 81 80 82 87 90 88 88 91 92 91 95 95 96 96 96 96 97 97 96
108 101 97 94 93 93 95 94 89 87 83 76 68 62 57 54 51 49 47 44 44 48 53 70 82 85 87 85 91 91 95 99 100 101 102 103 102 98 94 90 92 88 87
111 110 106 101 99 97 95 93 93 90 84 78 72 64 59 56 51 49 48 43 44 48 55 65 76 85 86 86 88 97 106 101 107 107 107 107 109 107 98 99 91 84 87
109 108 105 103 100 99 98 98 96 92 87 81 73 66 61 55 50 50 48 45 41 47 53 61 72 81 85 89 88 96 103 110 111 107 113 112 113 109 117 116 111 104 93
106 104 105 104 106 108 103 97 95 93 88 82 75 67 61 56 53 53 49 42 45 50 55 58 65 75 81 81 86 91 98 103 111 106 114 122 108 119 120 122 111 88 86
101 101 100 103 108 108 102 99 96 94 89 82 76 67 63 58 54 49 44 39 43 43 48 50 62 64 74 73 79 86 86 91 95 109 123 137 111 127 119 118 103 91 89
97 96 97 101 105 107 101 97 98 93 90 83 74 68 63 55 52 47 44 42 43 43 43 49 57 62 66 69 72 78 84 102 112 110 105 118 106 126 114 111 97 87 91
90 93 94 100 106 105 100 99 99 94 93 86 78 72 64 56 52 43 44 44 42 40 42 49 53 57 61 63 62 78 87 92 109 109 104 98 99 105 99 109 109 99 92
83 85 91 97 99 97 93 94 100 93 90 86 75 67 61 57 46 43 42 41 38 39 45 51 51 52 58 64 63 66 75 82 90 95 68 73 103 90 106 121 78 57 70
Wind_Direction_500mb
226 228 233 241 254 267 274 273 278 287 295 300 306 311 313 310 305 296 286 282 277 273 271 274 273 272 276 277 277 277 278 282 285 282 275 269 263 260 263 261 258 258 262
227 230 235 239 245 252 260 270 277 286 294 302 310 315 315 313 303 294 287 281 278 273 269 268 274 275 277 278 277 285 294 289 281 279 280 278 274 264 257 258 257 254 256
229 230 232 238 246 255 260 267 273 280 288 297 306 311 316 312 303 293 289 284 284 279 274 272 271 275 280 278 292 270 268 279 281 286 283 276 276 269 264 261 260 260 257
228 230 233 236 242 248 255 261 268 278 288 294 300 307 316 316 307 294 280 276 270 280 293 293 259 267 280 288 275 285 287 308 307 289 291 288 286 280 280 272 265 263 264
229 230 231 234 239 245 249 255 263 274 284 292 299 306 311 315 307 289 277 235 255 294 290 277 273 283 305 292 283 283 303 318 306 294 298 294 292 292 290 281 276 268 263
230 231 232 234 238 243 249 256 263 272 282 290 297 305 311 313 296 261 213 258 309 304 294 281 277 284 290 304 299 296 297 297 293 293 296 290 290 289 290 293 286 277 270
231 231 233 235 238 241 245 250 257 267 276 284 293 300 308 297 282 219 205 321 284 305 319 299 291 287 298 303 302 297 294 295 297 295 291 291 292 290 290 289 288 282 278
231 232 233 235 236 238 243 247 253 262 271 281 291 304 284 296 250 222 276 287 273 334 317 311 304 304 304 304 301 302 299 299 296 295 295 293 291 288 285 286 291 291 283
231 233 234 235 236 238 241 245 250 257 266 276 283 283 288 227 250 283 247 279 265 311 313 316 315 313 309 308 307 305 303 306 308 308 307 303 298 295 293 289 289 293 292
231 233 234 236 237 239 240 242 245 251 259 268 275 273 270 273 288 280 262 253 289 308 311 317 319 321 321 319 315 310 313 315 315 315 315 312 308 304 301 299 293 290 293
232 234 235 236 237 239 240 241 244 249 255 260 263 266 268 274 280 279 291 281 299 307 319 325 332 329 328 325 324 323 325 327 325 327 323 320 318 315 311 309 305 299 294
233 234 234 235 237 238 240 242 244 246 251 257 264 266 266 266 270 274 285 299 308 314 321 325 328 331 329 328 323 325 325 327 328 326 323 322 320 318 314 310 307 304 300
233 234 234 234 235 237 238 239 241 244 248 254 260 265 269 270 272 274 280 291 304 312 319 322 324 327 326 328 324 324 326 326 322 321 320 319 316 315 313 310 306 302 299
239 240 237 237 239 239 238 238 239 240 241 246 254 260 262 266 273 278 281 286 294 297 303 310 321 323 323 318 320 321 319 320 320 320 317 315 312 310 308 307 305 303 299
240 241 239 240 240 239 239 237 237 239 240 242 247 253 260 264 268 273 277 282 286 288 299 308 305 312 313 315 317 317 318 320 319 316 315 312 309 307 305 303 301 298 296
241 241 239 237 237 238 238 236 236 236 237 240 244 248 253 259 265 268 272 278 285 289 284 296 300 306 310 312 315 313 314 317 315 313 311 308 307 306 303 298 293 290 288
242 241 240 237 235 235 237 235 235 235 237 239 242 245 249 253 258 264 268 274 281 288 293 301 304 308 312 313 317 320 321 317 314 311 309 307 307 305 300 295 292 288 287
243 241 240 237 235 236 237 236 234 233 235 237 239 244 249 252 256 261 266 272 280 289 294 301 305 310 313 316 319 318 318 317 316 315 315 315 315 310 305 300 295 291 290
244 241 239 236 235 235 234 233 234 235 235 237 239 242 247 252 258 263 266 270 281 289 294 299 305 309 313 317 317 320 321 320 319 319 317 317 315 309 306 304 299 293 288
246 242 240 238 236 234 233 231 232 232 233 234 237 240 243 247 252 258 264 273 282 290 295 298 302 307 314 319 323 323 318 317 317 317 317 315 312 311 308 307 297 287 283
249 245 240 237 236 234 231 229 230 231 232 233 234 236 239 244 251 257 263 271 281 287 294 299 303 311 315 319 321 320 316 315 315 316 316 314 314 309 310 308 303 298 292
248 244 239 236 235 232 230 229 231 230 230 231 232 234 238 243 248 255 261 273 287 293 296 302 305 307 310 315 316 315 316 316 314 317 316 307 307 304 304 301 295 282 280
248 243 238 235 233 232 230 228 228 228 228 229 230 232 234 238 244 252 262 274 280 286 288 289 296 304 308 311 312 314 311 306 301 304 306 300 299 297 297 292 289 280 277
247 245 241 235 232 231 228 227 228 227 227 225 227 231 233 237 244 248 259 268 274 279 288 291 295 304 308 311 307 303 298 297 300 304 306 295 304 304 304 300 292 282 279
246 242 239 234 230 227 224 225 227 225 224 224 224 227 230 233 240 251 259 267 275 286 292 293 298 303 304 302 299 300 303 303 303 305 307 299 308 304 298 292 290 286 278
247 243 236 232 230 228 223 226 227 225 222 221 220 223 227 233 235 246 254 264 276 287 292 296 298 304 306 305 306 303 302 300 304 303 311 300 302 299 299 299 299 294 287
Wind_Speed_850mb
43 37 32 27 24 25 25 25 25 25 24 24 26 28 28 27 27 26 27 28 28 28 27 26 28 28 27 27 28 28 28 31 33 34 40 47 49 43 41 39 37 38 37
47 40 36 32 30 30 29 27 27 27 27 29 29 28 28 28 28 28 27 27 27 28 28 28 28 29 29 27 25 21 21 22 26 33 33 37 44 49 51 47 44 41 42
50 46 41 37 34 32 30 30 29 28 29 30 29 29 29 29 28 27 28 23 21 22 23 23 25 24 20 18 15 15 16 21 28 33 37 36 37 44 52 53 51 48 45
56 51 48 45 41 37 35 34 33 32 32 32 30 30 29 30 29 24 21 20 17 12 11 9 9 7 8 7 13 19 19 19 20 26 29 34 32 39 45 50 56 55 53
61 58 54 49 45 43 39 36 33 32 34 34 33 31 31 31 25 22 16 6 2 7 11 12 13 12 13 16 20 21 19 26 26 32 32 34 34 36 39 42 44 54 59
66 63 59 55 51 47 42 39 37 36 36 36 35 31 30 29 22 16 13 6 17 10 13 13 15 17 16 17 22 31 34 36 38 40 37 39 38 40 42 41 40 43 50
71 68 64 61 57 51 46 43 40 38 37 36 34 30 27 16 13 18 11 14 9 12 8 13 17 18 24 35 38 40 40 42 41 40 43 44 40 40 43 44 45 44 45
77 74 71 67 62 56 52 48 43 39 37 33 29 30 10 19 16 22 27 22 5 19 21 23 28 33 37 38 36 36 37 38 38 39 40 42 44 47 48 51 50 47 50
81 77 73 69 64 60 57 52 47 42 36 31 27 19 10 7 11 28 9 27 15 25 27 18 21 23 31 31 30 30 32 33 35 37 39 40 44 46 50 53 54 54 54
84 80 76 72 69 66 64 57 51 45 39 33 29 26 25 27 12 14 17 23 33 36 26 26 30 28 29 30 27 27 26 30 38 42 44 49 52 54 55 57 57 56 59
86 83 80 76 73 70 64 60 55 48 40 34 31 30 29 29 31 27 35 29 46 38 34 39 34 39 36 39 33 35 43 58 59 62 62 62 63 64 66 69 70 69 65
90 89 85 82 77 73 69 64 57 51 44 39 37 35 33 31 30 30 37 52 55 50 43 41 47 45 44 43 39 50 64 66 70 73 74 76 80 80 78 76 76 79 82
94 93 90 87 82 78 73 69 63 56 49 43 41 41 40 38 35 34 36 40 48 60 58 54 44 43 57 43 56 74 73 75 76 76 78 79 82 86 92 92 83 80 77
85 89 88 83 82 79 77 73 68 62 56 51 47 45 45 42 40 38 37 38 38 38 49 51 51 57 53 61 74 76 82 80 81 82 83 84 87 90 93 95 98 96 90
84 85 83 81 82 80 80 77 73 69 63 56 52 51 48 44 41 41 39 39 38 26 42 46 44 53 65 72 76 83 87 87 86 85 86 87 90 92 95 101 102 103 103
88 86 84 81 83 82 83 82 77 72 68 63 59 55 50 46 44 43 41 40 40 43 44 50 60 67 72 77 77 83 87 87 88 87 86 88 91 94 98 101 102 104 105
91 89 88 86 84 85 87 87 82 77 74 70 64 57 52 49 47 46 44 44 42 46 63 74 71 74 77 81 83 88 89 88 89 85 87 92 93 92 92 97 99 97 94
99 91 90 89 87 88 90 91 87 84 81 76 67 60 55 52 49 48 46 45 46 46 58 74 81 80 82 87 90 88 88 91 92 91 95 95 96 96 96 96 97 97 96
108 101 97 94 93 93 95 94 89 87 83 76 68 62 57 54 51 49 47 44 44 48 53 70 82 85 87 85 91 91 95 99 100 101 102 103 102 98 94 90 92 88 87
111 110 106 101 99 97 95 93 93 90 84 78 72 64 59 56 51 49 48 43 44 48 55 65 76 85 86 86 88 97 106 101 107 107 107 107 109 107 98 99 91 84 87
109 108 105 103 100 99 98 98 96 92 87 81 73 66 61 55 50 50 48 45 41 47 53 61 72 81 85 89 88 96 103 110 111 107 113 112 113 109 117 116 111 104 93
106 104 105 104 106 108 103 97 95 93 88 82 75 67 61 56 53 53 49 42 45 50 55 58 65 75 81 81 86 91 98 103 111 106 114 122 108 119 120 122 111 88 86
101 101 100 103 108 108 102 99 96 94 89 82 76 67 63 58 54 49 44 39 43 43 48 50 62 64 74 73 79 86 86 91 95 109 123 137 111 127 119 118 103 91 89
97 96 97 101 105 107 101 97 98 93 90 83 74 68 63 55 52 47 44 42 43 43 43 49 57 62 66 69 72 78 84 102 112 110 105 118 106 126 114 111 97 87 91
90 93 94 100 106 105 100 99 99 94 93 86 78 72 64 56 52 43 44 44 42 40 42 49 53 57 61 63 62 78 87 92 109 109 104 98 99 105 99 109 109 99 92
83 85 91 97 99 97 93 94 100 93 90 86 75 67 61 57 46 43 42 41 38 39 45 51 51 52 58 64 63 66 75 82 90 95 68 73 103 90 106 121 78 57 70
Wind_Direction_850mb
226 228 233 241 254 267 274 273 278 287 295 300 306 311 313 310 305 296 286 282 277 273 271 274 273 272 276 277 277 277 278 282 285 282 275 269 263 260 263 261 258 258 262
227 230 235 239 245 252 260 270 277 286 294 302 310 315 315 313 303 294 287 281 278 273 269 268 274 275 277 278 277 285 294 289 281 279 280 278 274 264 257 258 257 254 256
229 230 232 238 246 255 260 267 273 280 288 297 306 311 316 312 303 293 289 284 284 279 274 272 271 275 280 278 292 270 268 279 281 286 283 276 276 269 264 261 260 260 257
228 230 233 236 242 248 255 261 268 278 288 294 300 307 316 316 307 294 280 276 270 280 293 293 259 267 280 288 275 285 287 308 307 289 291 288 286 280 280 272 265 263 264
229 230 231 234 239 245 249 255 263 274 284 292 299 306 311 315 307 289 277 235 255 294 290 277 273 283 305 292 283 283 303 318 306 294 298 294 292 292 290 281 276 268 263
230 231 232 234 238 243 249 256 263 272 282 290 297 305 311 313 296 261 213 258 309 304 294 281 277 284 290 304 299 296 297 297 293 293 296 290 290 289 290 293 286 277 270
231 231 233 235 238 241 245 250 257 267 276 284 293 300 308 297 282 219 205 321 284 305 319 299 291 287 298 303 302 297 294 295 297 295 291 291 292 290 290 289 288 282 278
231 232 233 235 236 238 243 247 253 262 271 281 291 304 284 296 250 222 276 287 273 334 317 311 304 304 304 304 301 302 299 299 296 295 295 293 291 288 285 286 291 291 283
231 233 234 235 236 238 241 245 250 257 266 276 283 283 288 227 250 283 247 279 265 311 313 316 315 313 309 308 307 305 303 306 308 308 307 303 298 295 293 289 289 293 292
231 233 234 236 237 239 240 242 245 251 259 268 275 273 270 273 288 280 262 253 289 308 311 317 319 321 321 319 315 310 313 315 315 315 315 312 308 304 301 299 293 290 293
232 234 235 236 237 239 240 241 244 249 255 260 263 266 268 274 280 279 291 281 299 307 319 325 332 329 328 325 324 323 325 327 325 327 323 320 318 315 311 309 305 299 294
233 234 234 235 237 238 240 242 244 246 251 257 264 266 266 266 270 274 285 299 308 314 321 325 328 331 329 328 323 325 325 327 328 326 323 322 320 318 314 310 307 304 300
233 234 234 234 235 237 238 239 241 244 248 254 260 265 269 270 272 274 280 291 304 312 319 322 324 327 326 328 324 324 326 326 322 321 320 319 316 315 313 310 306 302 299
239 240 237 237 239 239 238 238 239 240 241 246 254 260 262 266 273 278 281 286 294 297 303 310 321 323 323 318 320 321 319 320 320 320 317 315 312 310 308 307 305 303 299
240 241 239 240 240 239 239 237 237 239 240 242 247 253 260 264 268 273 277 282 286 288 299 308 305 312 313 315 317 317 318 320 319 316 315 312 309 307 305 303 301 298 296
241 241 239 237 237 238 238 236 236 236 237 240 244 248 253 259 265 268 272 278 285 289 284 296 300 306 310 312 315 313 314 317 315 313 311 308 307 306 303 298 293 290 288
242 241 240 237 235 235 237 235 235 235 237 239 242 245 249 253 258 264 268 274 281 288 293 301 304 308 312 313 317 320 321 317 314 311 309 307 307 305 300 295 292 288 287
243 241 240 237 235 236 237 236 234 233 235 237 239 244 249 252 256 261 266 272 280 289 294 301 305 310 313 316 319 318 318 317 316 315 315 315 315 310 305 300 295 291 290
244 241 239 236 235 235 234 233 234 235 235 237 239 242 247 252 258 263 266 270 281 289 294 299 305 309 313 317 317 320 321 320 319 319 317 317 315 309 306 304 299 293 288
246 242 240 238 236 234 233 231 232 232 233 234 237 240 243 247 252 258 264 273 282 290 295 298 302 307 314 319 323 323 318 317 317 317 317 315 312 311 308 307 297 287 283
249 245 240 237 236 234 231 229 230 231 232 233 234 236 239 244 251 257 263 271 281 287 294 299 303 311 315 319 321 320 316 315 315 316 316 314 314 309 310 308 303 298 292
248 244 239 236 235 232 230 229 231 230 230 231 232 234 238 243 248 255 261 273 287 293 296 302 305 307 310 315 316 315 316 316 314 317 316 307 307 304 304 301 295 282 280
248 243 238 235 233 232 230 228 228 228 228 229 230 232 234 238 244 252 262 274 280 286 288 289 296 304 308 311 312 314 311 306 301 304 306 300 299 297 297 292 289 280 277
247 245 241 235 232 231 228 227 228 227 227 225 227 231 233 237 244 248 259 268 274 279 288 291 295 304 308 311 307 303 298 297 300 304 306 295 304 304 304 300 292 282 279
246 242 239 234 230 227 224 225 227 225 224 224 224 227 230 233 240 251 259 267 275 286 292 293 298 303 304 302 299 300 303 303 303 305 307 299 308 304 298 292 290 286 278
247 243 236 232 230 228 223 226 227 225 222 221 220 223 227 233 235 246 254 264 276 287 292 296 298 304 306 305 306 303 302 300 304 303 311 300 302 299 299 299 299 294 287